Lebanon, NH

6:51 AM EST on November 22, 2019 (GMT -0500)
Lebanon Municipal

Weather History for KLEB - October, 2019

Change the Weather History Date:

Wednesday, October 23, 2019

  Actual Average Record
Temperature  
Mean Temperature 54 °F -  
Max Temperature 63 °F 57 °F 79 °F (1979)
Min Temperature 44 °F 35 °F 22 °F (1930)
Degree Days  
Heating Degree Days 12    
Growing Degree Days 4 (Base 50)    
Moisture  
Dew Point 46 °F    
Average Humidity 78    
Maximum Humidity 89    
Minimum Humidity 39    
Precipitation  
Precipitation 0.54 in - - ()
Sea Level Pressure  
Sea Level Pressure 29.84 in    
Wind  
Wind Speed 3 mph (WNW)    
Max Wind Speed 12 mph    
Max Gust Speed 23 mph    
Visibility 6 miles    
Events Fog , Rain    
Averages and records for this station are not official NWS values.
T = Trace of Precipitation, MM = Missing Value Source: NWS Daily Summary

Daily Weather History Graph

Daily Weather History Graph

Search for Another Location

Airport or City:

Astronomy

Oct. 23, 2019 Rise Set
Actual Time 7:13 AM EDT 5:53 PM EDT
Civil Twilight 6:43 AM EDT 6:22 PM EDT
Nautical Twilight 6:10 AM EDT 6:56 PM EDT
Astronomical Twilight 5:37 AM EDT 7:29 PM EDT
Moon 1:14 AM EDT (10/23) 3:54 PM EDT (10/23)
Length of Visible Light 11h 38m
Length of Day
10h 40m
Waning Crescent, 27% of the Moon is Illuminated
Oct 23
Waning Crescent
Oct 27
New
Nov 4
First Quarter
Nov 12
Full
Nov 19
Last Quarter

Hourly Weather History & Observations

Time (EDT) Temp. Windchill Dew Point Humidity Pressure Visibility Wind Dir Wind Speed Gust Speed Precip Events Conditions
12:29 AM 53.1 °F - 48.9 °F 86% 29.89 in 4.0 mi Calm Calm - 0.05 in Rain Light Rain
12:53 AM 52.0 °F - 48.0 °F 86% 29.86 in 4.0 mi NNE 4.6 mph - 0.11 in Rain Rain
1:38 AM 52.0 °F - 48.9 °F 89% 29.83 in 2.5 mi West 5.8 mph - 0.04 in Rain Light Rain
1:49 AM 51.8 °F - 48.2 °F 88% 29.83 in 4.0 mi West 3.5 mph - 0.04 in Rain Light Rain
1:53 AM 52.0 °F - 48.9 °F 89% 29.82 in 5.0 mi West 3.5 mph - 0.05 in Rain Light Rain
2:15 AM 52.0 °F - 48.9 °F 89% 29.81 in 2.5 mi Calm Calm - 0.03 in Rain Light Rain
2:37 AM 52.0 °F - 48.9 °F 89% 29.80 in 2.5 mi Calm Calm - 0.09 in Rain Rain
2:53 AM 53.1 °F - 48.9 °F 86% 29.79 in 3.0 mi Calm Calm - 0.14 in Rain Rain
3:08 AM 53.1 °F - 48.9 °F 86% 29.80 in 2.5 mi Variable 3.5 mph - 0.03 in Rain Light Rain
3:21 AM 52.0 °F - 48.9 °F 89% 29.80 in 1.8 mi West 5.8 mph - 0.06 in Rain Rain
3:35 AM 53.1 °F - 50.0 °F 89% 29.81 in 2.5 mi WNW 3.5 mph - 0.10 in Rain Light Rain
3:53 AM 53.1 °F - 48.9 °F 86% 29.80 in 2.0 mi NW 3.5 mph - 0.14 in Rain Light Rain
4:15 AM 53.1 °F - 48.9 °F 86% 29.81 in 3.0 mi Calm Calm - 0.03 in Rain Light Rain
4:27 AM 52.0 °F - 48.9 °F 89% 29.81 in 2.0 mi Calm Calm - 0.05 in Rain Light Rain
4:37 AM 52.0 °F - 48.9 °F 89% 29.81 in 2.5 mi Calm Calm - 0.05 in Rain Light Rain
4:53 AM 53.1 °F - 48.9 °F 86% 29.80 in 4.0 mi ENE 3.5 mph - 0.06 in Rain Light Rain
5:36 AM 53.1 °F - 48.9 °F 86% 29.81 in 6.0 mi Calm Calm - 0.01 in Rain Light Rain
5:53 AM 53.1 °F - 50.0 °F 89% 29.80 in 2.5 mi Calm Calm - 0.01 in Rain Light Rain
6:01 AM 53.1 °F - 50.0 °F 89% 29.81 in 2.0 mi Calm Calm - 0.01 in Rain Light Rain
6:09 AM 53.1 °F - 50.0 °F 89% 29.81 in 2.0 mi Calm Calm - 0.01 in Rain Light Rain
6:17 AM 53.1 °F - 50.0 °F 89% 29.81 in 1.5 mi Calm Calm - 0.02 in Rain Light Rain
6:32 AM 53.1 °F - 48.9 °F 86% 29.80 in 0.8 mi East 3.5 mph - 0.02 in Rain Light Rain
6:40 AM 53.1 °F - 50.0 °F 89% 29.80 in 2.0 mi Calm Calm - 0.02 in Rain Light Rain
6:48 AM 53.6 °F - 50.0 °F 88% 29.80 in 8.0 mi Calm Calm - 0.02 in   Overcast
6:53 AM 52.0 °F - 48.9 °F 89% 29.80 in 2.0 mi Calm Calm - 0.02 in   Overcast
7:28 AM 53.1 °F - 50.0 °F 89% 29.79 in 1.2 mi Calm Calm - N/A   Overcast
7:37 AM 53.1 °F - 50.0 °F 89% 29.80 in 0.5 mi Calm Calm - 0.01 in Fog Fog
7:51 AM 53.6 °F - 50.0 °F 88% 29.80 in 2.0 mi Calm Calm - 0.01 in   Overcast
7:53 AM 53.1 °F - 50.0 °F 89% 29.79 in 3.0 mi Calm Calm - 0.01 in   Overcast
8:53 AM 54.0 °F - 50.0 °F 86% 29.80 in 10.0 mi Calm Calm - N/A   Overcast
9:04 AM 55.0 °F - 50.0 °F 83% 29.80 in 10.0 mi NW 4.6 mph - N/A   Overcast
9:13 AM 55.0 °F - 50.0 °F 83% 29.80 in 10.0 mi NNW 3.5 mph - N/A   Overcast
9:53 AM 57.0 °F - 50.0 °F 77% 29.82 in 10.0 mi NW 4.6 mph - N/A   Mostly Cloudy
10:53 AM 60.1 °F - 48.0 °F 64% 29.81 in 10.0 mi Variable 5.8 mph - N/A   Partly Cloudy
11:53 AM 62.1 °F - 46.0 °F 56% 29.81 in 10.0 mi NNW 8.1 mph - N/A   Mostly Cloudy
12:53 PM 61.0 °F - 41.0 °F 48% 29.81 in 10.0 mi WNW 10.4 mph - N/A   Overcast
1:53 PM 63.0 °F - 39.0 °F 41% 29.81 in 10.0 mi WNW 9.2 mph 20.7 mph N/A   Scattered Clouds
2:53 PM 62.1 °F - 37.0 °F 39% 29.81 in 10.0 mi West 11.5 mph - N/A   Scattered Clouds
3:53 PM 60.1 °F - 37.0 °F 42% 29.86 in 10.0 mi West 10.4 mph 23.0 mph N/A   Scattered Clouds
4:53 PM 60.1 °F - 37.0 °F 42% 29.88 in 10.0 mi West 10.4 mph 19.6 mph N/A   Clear
5:53 PM 57.9 °F - 36.0 °F 44% 29.91 in 10.0 mi West 5.8 mph - N/A   Scattered Clouds
6:53 PM 48.9 °F - 37.9 °F 66% 29.96 in 10.0 mi Calm Calm - N/A   Clear
7:53 PM 45.0 °F 42.6 °F 37.9 °F 76% 29.99 in 10.0 mi SSE 4.6 mph - N/A   Partly Cloudy
8:53 PM 44.1 °F - 36.0 °F 73% 30.01 in 10.0 mi Calm Calm - N/A   Clear
9:53 PM 46.0 °F - 35.1 °F 66% 30.04 in 10.0 mi Calm Calm - N/A   Clear
10:53 PM 44.1 °F 40.8 °F 36.0 °F 73% 30.06 in 10.0 mi South 5.8 mph - N/A   Partly Cloudy
11:53 PM 46.0 °F 43.1 °F 35.1 °F 66% 30.06 in 10.0 mi SW 5.8 mph - N/A   Clear